This is the latest recevied weather packets stored in our database for station/object KL4TQ. If no packets are shown the sender has not sent any weather packets the latest 10 day(s).
| Time | Temp. | Humidity | Pressure | Rain* | Wind** | Luminosity | Snow |
|---|---|---|---|---|---|---|---|
| 1778116269 | 3.33° C | 50% | 857 hPa | 0 mm | - | 343 W/m² | - |
| 1778115969 | 3.33° C | 49% | 857 hPa | 0 mm | - | 364 W/m² | - |
| 1778115669 | 3.33° C | 49% | 857 hPa | 0 mm | - | 385 W/m² | - |
| 1778115369 | 3.33° C | 48% | 857 hPa | 0 mm | - | 404 W/m² | - |
| 1778115068 | 3.33° C | 48% | 857 hPa | 0 mm | - | 382 W/m² | - |
| 1778114769 | 3.89° C | 48% | 857 hPa | 0 mm | - | 378 W/m² | - |
| 1778114468 | 3.89° C | 47% | 857 hPa | 0 mm | - | 482 W/m² | - |
| 1778114169 | 3.89° C | 46% | 857 hPa | 0 mm | - | 570 W/m² | - |
| 1778113870 | 3.89° C | 49% | 857 hPa | 0 mm | - | 526 W/m² | - |
| 1778113569 | 3.89° C | 49% | 857 hPa | 0 mm | - | 450 W/m² | - |
| 1778113271 | 3.33° C | 48% | 857 hPa | 0 mm | - | 517 W/m² | - |
| 1778112968 | 3.89° C | 48% | 857 hPa | 0 mm | - | 514 W/m² | - |
| 1778112668 | 3.89° C | 49% | 857 hPa | 0 mm | - | 451 W/m² | - |
| 1778112369 | 3.89° C | 49% | 857 hPa | 0 mm | - | 639 W/m² | - |
| 1778112069 | 3.33° C | 48% | 857 hPa | 0 mm | - | 678 W/m² | - |
| 1778111768 | 3.89° C | 47% | 857 hPa | 0 mm | - | 652 W/m² | - |
| 1778111469 | 3.33° C | 47% | 857 hPa | 0 mm | - | 679 W/m² | - |
| 1778111168 | 3.89° C | 46% | 857 hPa | 0 mm | - | 635 W/m² | - |
| 1778110869 | 3.89° C | 47% | 857 hPa | 0 mm | - | 499 W/m² | - |
| 1778110569 | 3.33° C | 49% | 857 hPa | 0 mm | - | 572 W/m² | - |
| 1778110268 | 3.33° C | 48% | 857 hPa | 0 mm | - | 518 W/m² | - |
| 1778109969 | 3.33° C | 50% | 857 hPa | 0 mm | - | 632 W/m² | - |
| 1778109668 | 3.89° C | 48% | 857 hPa | 0 mm | - | 502 W/m² | - |
| 1778109369 | 3.89° C | 49% | 857 hPa | 0 mm | - | 564 W/m² | - |
| 1778109068 | 3.89° C | 48% | 857 hPa | 0 mm | - | 612 W/m² | - |
* Rain latest hour (hover to see other rain measurements)
** Current wind speed in m/s (hover to see current wind gust speed)